Find Starlink 30446

NORAD ID: 57872 Int'l Des: 2023-144 Owner: SPXS Country: US Constellation: starlink operational
LEOCIRCULAR

リアルタイム位置

3D地球を読み込み中...

Starlink 30446について

説明を読み込み中...

次回通過

Passes for default location (London). Set your location on the main map for personalized predictions.

高度履歴

Loading altitude history...

軌道要素

1 57872U 23144J 26125.51339209 -.00002889 00000-0 -95448-4 0 9994
2 57872 43.0034 310.1615 0000795 306.2598 53.8181 15.27594873146228
Epoch: May 5, 2026 • Age: 18 hours

現在のステータス

高度 482.8 km
速度 7.63 km/s
衛星直下点 19.03°N, 146.58°E
打ち上げ日 Sep 16, 2023
運用期間 2.6 years
タイプ internet

技術仕様

分類 Payload
質量 730.00 kg
乾燥質量 700.00 kg
総質量 730.00 kg
長さ 0.30 m
直径 4.10 m
スパン 29.00 m
形状 Box + pan
製造者 SPXS
バスタイプ Starlink V2M
フェーズステータス In Orbit
所有者/国 SPXS/US

Most Searched